PDT,Max TemperatureF,Mean TemperatureF,Min TemperatureF,Max Dew PointF,MeanDew PointF,Min DewpointF,Max Humidity, Mean Humidity, Min Humidity, Max Sea Level PressureIn, Mean Sea Level PressureIn, Min Sea Level PressureIn, Max VisibilityMiles, Mean VisibilityMiles, Min VisibilityMiles, Max Wind SpeedMPH, Mean Wind SpeedMPH, Max Gust SpeedMPH,PrecipitationIn, CloudCover, Events, WindDirDegrees
2013-10-1,57,48,42,48,45,42,100,90,67,30.12,29.99,29.90,10,7,0,14,3,21,0.38,6,Fog-Rain,210
2013-10-2,53,48,44,48,46,43,100,91,76,30.18,30.08,30.03,10,8,1,9,2,,0.25,8,Rain,174
2013-10-3,57,47,37,47,43,35,100,89,62,30.45,30.33,30.17,10,6,0,7,1,,0.00,6,Fog,104
2013-10-4,63,50,36,49,43,35,100,86,48,30.48,30.42,30.35,10,10,10,5,1,,0.00,5,,112
2013-10-5,66,50,33,53,43,33,100,85,59,30.35,30.27,30.14,10,10,10,7,1,,0.00,1,,141
2013-10-6,73,53,33,52,42,32,100,83,26,30.12,30.01,29.90,10,7,1,22,2,30,0.02,2,Rain,229
2013-10-7,57,52,48,52,49,46,97,89,72,30.02,29.95,29.89,10,9,2,18,11,25,0.13,6,Rain,224
2013-10-8,59,47,36,46,44,35,100,83,60,30.08,30.00,29.94,10,7,0,17,10,24,0.03,4,Fog-Rain-Thunderstorm,190
2013-10-9,60,44,28,45,36,28,100,89,49,30.14,30.08,29.96,10,7,0,9,1,,0.00,2,Fog,209
2013-10-10,54,48,44,52,48,44,100,94,82,30.06,29.99,29.93,10,6,0,6,1,,0.14,8,Fog-Rain,5
2013-10-11,55,50,44,49,47,42,100,90,67,30.13,30.10,30.05,10,7,0,7,1,,0.00,6,Fog,223
2013-10-12,57,48,39,48,45,39,100,87,67,30.21,30.12,30.06,10,8,1,6,2,,0.03,6,Rain,360
2013-10-13,59,44,30,46,38,30,100,91,60,30.36,30.28,30.20,10,6,0,4,0,,0.00,4,Fog,180
2013-10-14,60,46,32,46,38,30,100,91,60,30.43,30.38,30.35,10,5,0,6,1,,0.00,4,Fog,356
2013-10-15,61,46,32,48,37,30,100,91,60,30.39,30.32,30.18,10,5,0,4,1,,0.00,3,Fog,116
2013-10-16,57,45,33,48,40,32,100,90,72,30.19,30.16,30.13,10,6,0,8,1,,0.00,7,Fog,77
2013-10-17,59,48,37,48,44,35,100,86,64,30.26,30.23,30.19,10,6,1,7,2,,0.00,5,,26
2013-10-18,57,44,32,48,38,32,100,95,75,30.24,30.20,30.14,10,3,0,6,1,,0.00,4,Fog,65
2013-10-19,48,40,33,46,40,32,100,96,89,30.19,30.16,30.13,8,3,0,6,1,,0.00,7,Fog,66
2013-10-20,50,47,44,46,45,43,100,92,83,30.20,30.17,30.14,10,6,1,7,4,,0.00,8,,42
2013-10-21,55,50,46,47,45,44,100,91,77,30.16,30.13,30.08,10,6,0,7,5,,0.00,7,Fog,53
2013-10-22,61,51,39,50,44,39,100,92,64,30.11,30.06,30.02,10,4,0,7,3,,0.00,5,Fog,44
2013-10-23,57,49,41,50,44,39,100,94,77,30.05,30.01,29.97,10,3,0,4,1,,0.00,5,Fog,48
2013-10-24,54,46,37,49,45,36,100,95,82,30.12,30.05,30.02,9,3,0,7,1,,0.00,7,Fog,154
2013-10-25,53,50,48,48,47,46,94,89,77,30.30,30.23,30.11,10,8,2,7,3,,0.01,8,Rain,350
2013-10-26,54,51,48,46,46,45,93,85,75,30.32,30.28,30.20,10,10,8,6,2,,0.00,8,,56
2013-10-27,57,48,36,46,44,35,97,83,62,30.18,29.97,29.89,10,10,6,10,4,,0.00,5,,186
2013-10-28,61,45,30,35,30,25,97,63,26,29.95,29.90,29.87,10,10,9,12,3,24,0.00,0,,39
2013-10-29,57,42,26,36,31,24,96,76,40,30.03,30.00,29.96,10,10,10,5,1,,0.00,0,,210
2013-10-30,55,42,28,48,40,27,96,84,71,30.14,30.09,30.04,10,10,6,13,3,,0.01,7,Rain,236
2013-10-31,54,50,46,52,47,44,100,93,88,30.26,30.15,30.09,10,6,1,12,2,,0.12,8,Rain,227